Year,Month,Day,Hour,Minute,Value (Times are PST for temperature in C)
2021,06,24,14,09,23.60
2021,06,24,14,10,23.60
2021,06,24,14,11,23.60
2021,06,24,14,12,23.70
2021,06,24,14,13,23.70
2021,06,24,14,14,23.70
2021,06,24,14,15,23.70
2021,06,24,14,16,23.80
2021,06,24,14,17,23.80
2021,06,24,14,18,23.80
2021,06,24,14,19,23.80
2021,06,24,14,20,23.90
2021,06,24,14,21,24.00
2021,06,24,14,22,24.00
2021,06,24,14,23,23.90
2021,06,24,14,24,23.80
2021,06,24,14,25,23.70
2021,06,24,14,26,23.70
2021,06,24,14,27,23.70
2021,06,24,14,28,23.70
2021,06,24,14,29,23.70
2021,06,24,14,30,23.70
2021,06,24,14,31,23.80
2021,06,24,14,32,23.70
2021,06,24,14,33,23.70
2021,06,24,14,34,23.80
2021,06,24,14,35,23.80
2021,06,24,14,36,23.90
2021,06,24,14,37,23.90
2021,06,24,14,38,24.00
2021,06,24,14,39,24.00
2021,06,24,14,40,24.00
2021,06,24,14,41,24.10
2021,06,24,14,42,24.10
2021,06,24,14,43,24.10
2021,06,24,14,44,24.20
2021,06,24,14,45,24.20
2021,06,24,14,46,24.30
2021,06,24,14,47,24.30
2021,06,24,14,48,24.30
2021,06,24,14,49,24.20
2021,06,24,14,50,24.20
2021,06,24,14,51,24.10
2021,06,24,14,52,24.10
2021,06,24,14,53,24.10
2021,06,24,14,54,24.00
2021,06,24,14,55,24.00
2021,06,24,14,56,24.00
2021,06,24,14,57,23.90
2021,06,24,14,58,23.90
2021,06,24,14,59,23.90
2021,06,24,15,00,23.90
2021,06,24,15,01,23.90
2021,06,24,15,02,24.00
2021,06,24,15,03,23.90
2021,06,24,15,04,24.00
2021,06,24,15,05,24.00
2021,06,24,15,06,24.10
2021,06,24,15,07,24.10
2021,06,24,15,08,24.10
2021,06,24,15,09,24.10
2021,06,24,15,10,24.10
2021,06,24,15,11,24.10
2021,06,24,15,12,24.10
2021,06,24,15,13,24.10
2021,06,24,15,14,24.20
2021,06,24,15,15,24.20
2021,06,24,15,16,24.30
2021,06,24,15,17,24.30
2021,06,24,15,18,24.20
2021,06,24,15,19,24.20
2021,06,24,15,20,24.20
2021,06,24,15,21,24.20
2021,06,24,15,22,24.20
2021,06,24,15,23,24.20
2021,06,24,15,24,24.10
2021,06,24,15,25,24.10
2021,06,24,15,26,24.10
2021,06,24,15,27,24.10
2021,06,24,15,28,24.10
2021,06,24,15,29,24.10
2021,06,24,15,30,24.10
2021,06,24,15,31,24.10
2021,06,24,15,32,24.10
2021,06,24,15,33,24.20
2021,06,24,15,34,24.30
2021,06,24,15,35,24.40
2021,06,24,15,36,24.40
2021,06,24,15,37,24.50
2021,06,24,15,38,24.60
2021,06,24,15,39,24.70
2021,06,24,15,40,24.70
2021,06,24,15,41,24.80
2021,06,24,15,42,24.90
2021,06,24,15,43,25.00
2021,06,24,15,44,25.00
2021,06,24,15,45,25.10
2021,06,24,15,46,25.00
2021,06,24,15,47,24.90
2021,06,24,15,48,24.80
2021,06,24,15,49,24.80
2021,06,24,15,50,24.70
2021,06,24,15,51,24.70
2021,06,24,15,52,24.70
2021,06,24,15,53,24.70
2021,06,24,15,54,24.70
2021,06,24,15,55,24.80
2021,06,24,15,56,24.80
2021,06,24,15,57,24.80
2021,06,24,15,58,24.80
2021,06,24,15,59,24.80
2021,06,24,16,00,24.70
2021,06,24,16,01,24.60
2021,06,24,16,02,24.50
2021,06,24,16,03,24.40
2021,06,24,16,04,24.30
2021,06,24,16,05,24.30
2021,06,24,16,06,24.20
2021,06,24,16,07,24.10
2021,06,24,16,08,24.00
2021,06,24,16,09,23.90
2021,06,24,16,10,23.80
2021,06,24,16,11,23.70
2021,06,24,16,12,23.60
2021,06,24,16,13,23.50
2021,06,24,16,14,23.50
2021,06,24,16,15,23.50
2021,06,24,16,16,23.60
2021,06,24,16,17,23.70
2021,06,24,16,18,23.80
2021,06,24,16,19,24.00
2021,06,24,16,20,24.10
2021,06,24,16,21,24.20
2021,06,24,16,22,24.30
2021,06,24,16,23,24.40
2021,06,24,16,24,24.40
2021,06,24,16,25,24.40
2021,06,24,16,26,24.40
2021,06,24,16,27,24.40
2021,06,24,16,28,24.40
2021,06,24,16,29,24.30
2021,06,24,16,30,24.20
2021,06,24,16,31,24.20
2021,06,24,16,32,24.20
2021,06,24,16,33,24.30
2021,06,24,16,34,24.30
2021,06,24,16,35,24.30
2021,06,24,16,36,24.30
2021,06,24,16,37,24.40
2021,06,24,16,38,24.40
2021,06,24,16,39,24.40
2021,06,24,16,40,24.30
2021,06,24,16,41,24.30
2021,06,24,16,42,24.40
2021,06,24,16,43,24.50
2021,06,24,16,44,24.50
2021,06,24,16,45,24.60
2021,06,24,16,46,24.70
2021,06,24,16,47,24.70
2021,06,24,16,48,24.70
2021,06,24,16,49,24.70
2021,06,24,16,50,24.60
2021,06,24,16,51,24.60
2021,06,24,16,52,24.50
2021,06,24,16,53,24.40
2021,06,24,16,54,24.30
2021,06,24,16,55,24.30
2021,06,24,16,56,24.20
2021,06,24,16,57,24.10
2021,06,24,16,58,24.10
2021,06,24,16,59,24.00
2021,06,24,17,00,23.90
2021,06,24,17,01,23.90
2021,06,24,17,02,24.00
2021,06,24,17,03,24.00
2021,06,24,17,04,24.10
2021,06,24,17,05,24.10
2021,06,24,17,06,24.20
2021,06,24,17,07,24.20
2021,06,24,17,08,24.30
2021,06,24,17,09,24.40
2021,06,24,17,10,24.40
2021,06,24,17,11,24.50
2021,06,24,17,12,24.50
2021,06,24,17,13,24.50
2021,06,24,17,14,24.50
2021,06,24,17,15,24.50
2021,06,24,17,16,24.50
2021,06,24,17,17,24.50
2021,06,24,17,18,24.50
2021,06,24,17,19,24.50
2021,06,24,17,20,24.60
2021,06,24,17,21,24.70
2021,06,24,17,22,24.70
2021,06,24,17,23,24.80
2021,06,24,17,24,24.90
2021,06,24,17,25,24.90
2021,06,24,17,26,24.90
2021,06,24,17,27,25.00
2021,06,24,17,28,25.00
2021,06,24,17,29,25.00
2021,06,24,17,30,25.10
2021,06,24,17,31,25.20
2021,06,24,17,32,25.20
2021,06,24,17,33,25.20
2021,06,24,17,34,25.30
2021,06,24,17,35,25.30
2021,06,24,17,36,25.30
2021,06,24,17,37,25.20
2021,06,24,17,38,25.20
2021,06,24,17,39,25.20
2021,06,24,17,40,25.20
2021,06,24,17,41,25.10
2021,06,24,17,42,25.00
2021,06,24,17,43,24.90
2021,06,24,17,44,24.90
2021,06,24,17,45,24.80
2021,06,24,17,46,24.80
2021,06,24,17,47,24.70
2021,06,24,17,48,24.70
2021,06,24,17,49,24.70
2021,06,24,17,50,24.70
2021,06,24,17,51,24.70
2021,06,24,17,52,24.70
2021,06,24,17,53,24.70
2021,06,24,17,54,24.70
2021,06,24,17,55,24.70
2021,06,24,17,56,24.60
2021,06,24,17,57,24.60
2021,06,24,17,58,24.60
2021,06,24,17,59,24.60
2021,06,24,18,00,24.60
2021,06,24,18,01,24.60
2021,06,24,18,02,24.60
2021,06,24,18,03,24.60
2021,06,24,18,04,24.70
2021,06,24,18,05,24.70
2021,06,24,18,06,24.80
2021,06,24,18,07,24.80
2021,06,24,18,08,24.80
2021,06,24,18,09,24.80
2021,06,24,18,10,24.80
2021,06,24,18,11,24.90
2021,06,24,18,12,24.90
2021,06,24,18,13,25.00
2021,06,24,18,14,25.10
2021,06,24,18,15,25.20
2021,06,24,18,16,25.20
2021,06,24,18,17,25.20
2021,06,24,18,18,25.10
2021,06,24,18,19,25.10
2021,06,24,18,20,25.10
2021,06,24,18,21,25.10
2021,06,24,18,22,25.10
2021,06,24,18,23,25.10
2021,06,24,18,24,25.20
2021,06,24,18,25,25.30
2021,06,24,18,26,25.40
2021,06,24,18,27,25.60
2021,06,24,18,28,25.70
2021,06,24,18,29,25.90
2021,06,24,18,30,25.90
2021,06,24,18,31,26.10
2021,06,24,18,32,26.20
2021,06,24,18,33,26.30
2021,06,24,18,34,26.30
2021,06,24,18,35,26.40
2021,06,24,18,36,26.40
2021,06,24,18,37,26.40
2021,06,24,18,38,26.30
2021,06,24,18,39,26.30
2021,06,24,18,40,26.40
2021,06,24,18,41,26.40
2021,06,24,18,42,26.40
2021,06,24,18,43,26.50
2021,06,24,18,44,26.50
2021,06,24,18,45,26.50
2021,06,24,18,46,26.50
2021,06,24,18,47,26.40
2021,06,24,18,48,26.30
2021,06,24,18,49,26.20
2021,06,24,18,50,26.10
2021,06,24,18,51,26.00
2021,06,24,18,52,25.90
2021,06,24,18,53,25.70
2021,06,24,18,54,25.60
2021,06,24,18,55,25.40
2021,06,24,18,56,25.30
2021,06,24,18,57,25.20
2021,06,24,18,58,25.20
2021,06,24,18,59,25.10
2021,06,24,19,00,25.10
2021,06,24,19,01,25.10
2021,06,24,19,02,25.00
2021,06,24,19,03,25.00
2021,06,24,19,04,25.00
2021,06,24,19,05,25.10
2021,06,24,19,06,25.10
2021,06,24,19,07,25.10
2021,06,24,19,08,25.10
2021,06,24,19,09,25.10
2021,06,24,19,10,25.10
2021,06,24,19,11,25.10
2021,06,24,19,12,25.10
2021,06,24,19,13,25.10
2021,06,24,19,14,25.00
2021,06,24,19,15,25.00
2021,06,24,19,16,24.90
2021,06,24,19,17,24.80
2021,06,24,19,18,24.70
2021,06,24,19,19,24.70
2021,06,24,19,20,24.70
2021,06,24,19,21,24.70
2021,06,24,19,22,24.60
2021,06,24,19,23,24.60
2021,06,24,19,24,24.50
2021,06,24,19,25,24.50
2021,06,24,19,26,24.40
2021,06,24,19,27,24.40
2021,06,24,19,28,24.40
2021,06,24,19,29,24.30
2021,06,24,19,30,24.30
2021,06,24,19,31,24.30
2021,06,24,19,32,24.20
2021,06,24,19,33,24.20
2021,06,24,19,34,24.10
2021,06,24,19,35,24.00
2021,06,24,19,36,24.00
2021,06,24,19,37,23.90
2021,06,24,19,38,23.90
2021,06,24,19,39,23.90
2021,06,24,19,40,23.80
2021,06,24,19,41,23.80
2021,06,24,19,42,23.80
2021,06,24,19,43,23.80
2021,06,24,19,44,23.70
2021,06,24,19,45,23.70
2021,06,24,19,46,23.60
2021,06,24,19,47,23.60
2021,06,24,19,48,23.60
2021,06,24,19,49,23.50
2021,06,24,19,50,23.50
2021,06,24,19,51,23.40
2021,06,24,19,52,23.40
2021,06,24,19,53,23.40
2021,06,24,19,54,23.40
2021,06,24,19,55,23.40
2021,06,24,19,56,23.40
2021,06,24,19,57,23.40
2021,06,24,19,58,23.40
2021,06,24,19,59,23.40
2021,06,24,20,00,23.40
2021,06,24,20,01,23.40
2021,06,24,20,02,23.40
2021,06,24,20,03,23.40
